Regional Weather Roundup
Issued by NWS

Home | Current Version | Previous Version | Text Only | Print | Product List | Glossary On
Versions: 1 2 3 4 5 6 7 8 9 10 11 12 13 14 15 16 17 18 19 20 21 22 23 24 25 26 27 28 29 30 31 32 33 34 35 36 37 38 39 40 41 42 43 44 45 46 47 48 49 50
000
ASUS45 KABQ 191410
RWRNM
NEW MEXICO REGIONAL WEATHER ROUNDUP
NATIONAL WEATHER SERVICE ALBUQUERQUE NM
800 AM MDT TUE SEP 19 2017

NOTE: "FAIR" MEANS FEW OR NO CLOUDS BELOW 12,000 FEET AGL WITH NO
       SIGNIFICANT WEATHER OR OBSTRUCTIONS TO VISION.

      THIS PRODUCT IS RELEASED AS TWO VERSIONS.  ONE VERSION NEAR
      THE TOP OF THE HOUR CONTAINING PRELIMINARY DATA FROM ALBUQUERQUE
      AND OTHER STATIONS.  A FINAL VERSION WITH ADDITIONAL DATA IS
      ISSUED ABOUT 10 MINUTES AFTER THE HOUR.

NMZ501-503-504-510>518-191500-
NORTHWEST PLATEAU/NORTHCENTRAL MOUNTAINS

CITY           SKY/WX    TMP DP  RH WIND       PRES   REMARKS
FARMINGTON     FAIR      47  32  56 E10       30.04S
LOS ALAMOS     FAIR      57  19  22 E3        30.16R
SANTA FE       FAIR      57  29  34 NE3       30.12R
TAOS           FAIR      52  24  33 CALM      30.17R
ANGEL FIRE     FAIR      52  18  26 W15G24    30.18R

$$
NMZ402-403-502-505>509-191500-
WESTCENTRAL MOUNTAINS/SOUTHWEST MOUNTAINS

CITY           SKY/WX    TMP DP  RH WIND       PRES   REMARKS
GALLUP         FAIR      55  30  38 SW7       30.13R
GRANTS         FAIR      52  25  35 S9        30.15S
SILVER CITY    FAIR      61  35  38 NW8       30.14R

$$
NMZ407-409-411-412-191500-
SOUTHERN DESERTS

CITY           SKY/WX    TMP DP  RH WIND       PRES   REMARKS
DEMING         FAIR      60  46  59 CALM      30.09R
LAS CRUCES     FAIR      66  52  60 CALM      30.08S
HOLLOMAN AFB   FAIR      72  52  49 SE10      30.05R
ALAMOGORDO     FAIR      72  50  46 S6        30.05S
T OR C         FAIR      63  34  33 W6        30.06R

$$
NMZ519>523-191500-
CENTRAL VALLEYS/CENTRAL HIGHLANDS

CITY           SKY/WX    TMP DP  RH WIND       PRES   REMARKS
ALBUQUERQUE    FAIR      62  28  27 CALM      30.09R
DOUBLE EAGLE   SUNNY     52  25  35 SW5       30.11R
MORIARTY ARPT  FAIR      58  31  35 CALM      30.13R
CLINES CORNERS FAIR      59  25  27 W16       30.15R
BELEN          FAIR      60  29  30 CALM      30.08R
SOCORRO        FAIR      60  36  41 S7        30.06S

$$
NMZ524>526-539-540-191500-
SOUTHCENTRAL MOUNTAINS

CITY           SKY/WX    TMP DP  RH WIND       PRES   REMARKS
RUIDOSO        FAIR      59  45  58 CALM      30.19R

$$
NMZ527>531-191500-
NORTHEAST HIGHLANDS/NORTHEAST PLAINS

CITY           SKY/WX    TMP DP  RH WIND       PRES   REMARKS
LAS VEGAS      FAIR      60  21  22 SW16      30.07R
RATON          FAIR      52  39  61 NE8       29.99S
CLAYTON        FAIR      62  32  32 W9        29.89F

$$
NMZ532>537-191500-
EASTCENTRAL PLAINS

CITY           SKY/WX    TMP DP  RH WIND       PRES   REMARKS
SANTA ROSA     FAIR      63  30  29 SW5       29.99S
TUCUMCARI      FAIR      68  36  30 SW12      29.92R
CANNON AFB     FAIR      64  51  61 W9        30.00R
CLOVIS AIRPORT FAIR      63  51  65 W9        29.99R

$$
NMZ028-029-538-191500-
SOUTHEAST PLAINS

CITY           SKY/WX    TMP DP  RH WIND       PRES   REMARKS
ROSWELL        FAIR      67  46  47 CALM      29.98R
ARTESIA        FAIR      73  48  40 SE8       29.98R
CARLSBAD       FAIR      65  55  70 W3        29.97R
HOBBS          MOSUNNY   72  61  68 SW9       30.00S


$$




USA.gov is the U.S. government's official web portal to all federal, state and local government web resources and services.